GFSNW_925_thetae_159.txt.gz
Theta_e
303 302 302 302 302 302 303 300 303 305 304 312 308 311 310 309 311 312 312 313 314 318 318 319 321 326 326 325 323 323 323 324 324 326 324 325 324 325 327 328 334 331 332 332
303 303 302 302 302 303 304 303 301 302 303 310 309 311 313 312 311 312 312 313 313 314 317 318 317 318 317 319 323 327 323 325 326 326 325 322 326 326 327 329 331 334 332 331
303 303 303 302 302 303 304 303 304 306 308 307 309 311 314 313 313 313 312 312 312 313 315 315 316 317 316 315 320 329 324 327 328 327 328 327 327 326 327 329 331 332 331 331
303 303 303 302 302 303 303 302 303 304 307 309 306 309 312 314 316 315 316 314 313 313 314 315 315 315 316 316 320 322 323 326 326 327 328 328 327 326 326 328 329 331 331 332
303 303 303 302 302 303 303 304 304 305 304 305 308 308 312 314 311 313 316 318 315 317 316 315 316 315 316 318 317 318 324 326 327 326 325 325 326 327 327 327 328 329 328 332
303 303 302 303 302 303 303 301 303 306 303 304 304 306 309 310 308 310 312 311 311 316 318 316 318 319 319 318 321 320 320 329 330 329 327 326 326 326 327 327 328 328 330 331
303 303 302 302 302 303 303 301 303 305 304 303 303 305 304 306 307 309 308 308 310 315 313 315 318 318 321 322 323 321 322 329 328 329 330 331 330 329 327 328 328 329 330 334
302 303 302 302 302 302 302 303 303 305 305 304 303 303 304 304 305 307 308 308 309 311 313 320 324 323 324 323 323 324 321 322 323 328 331 331 330 328 328 328 330 329 331 334
302 302 303 303 302 302 302 302 302 304 305 304 303 306 306 306 306 309 310 309 309 310 315 320 328 324 322 323 321 322 321 325 323 328 329 333 331 332 328 330 333 333 333 334
302 302 302 302 302 302 302 302 302 303 305 303 304 304 304 305 305 306 308 308 309 312 321 325 325 323 323 322 323 325 321 322 326 326 328 331 333 338 331 333 335 338 334 336
302 302 302 302 302 302 302 302 302 303 304 303 303 304 304 304 306 305 306 307 311 315 320 325 325 326 324 325 324 327 326 328 325 327 329 330 340 339 334 341 341 337 337 335
301 301 301 301 302 302 302 301 301 301 302 303 303 303 303 303 303 305 305 306 308 311 319 319 320 323 328 327 327 329 330 327 328 331 328 341 340 344 339 338 343 340 340 339
301 301 300 301 302 300 301 302 301 302 303 302 302 303 302 302 302 303 305 305 306 309 310 313 317 322 323 335 326 328 334 336 332 336 342 339 335 336 338 339 341 340 341 340
301 300 300 300 300 301 301 301 301 301 303 304 303 302 302 303 303 303 303 303 308 310 308 309 317 322 321 329 330 332 333 337 344 338 334 335 334 336 339 341 339 337 337 336
300 300 300 300 300 300 300 300 301 301 302 304 303 302 303 304 303 303 303 303 306 308 307 310 321 323 325 325 328 333 334 340 341 338 338 343 339 337 337 338 337 336 333 330
299 300 300 300 300 301 301 303 301 301 302 303 305 305 306 306 306 303 305 305 307 308 309 310 319 320 323 327 336 334 330 330 331 339 334 334 332 334 334 333 332 331 328 327
300 299 299 300 300 301 302 302 303 302 301 302 305 308 310 307 306 306 307 306 309 310 309 317 320 321 321 327 331 331 330 330 332 329 329 329 329 330 328 327 326 326 327 326
302 302 302 302 301 300 301 301 301 301 302 303 307 311 313 309 311 312 311 310 310 313 317 318 323 323 323 328 330 329 326 326 327 328 328 325 326 325 324 324 325 325 324 324
304 303 303 302 302 302 302 303 305 302 302 306 307 309 317 312 312 314 315 315 316 317 317 320 321 323 326 326 327 327 326 328 326 325 325 324 326 325 324 323 323 323 323 323
304 303 303 305 302 303 304 305 305 303 303 303 305 305 310 313 313 314 317 316 318 319 319 318 323 325 325 323 321 325 326 326 327 328 329 327 327 326 324 324 325 325 326 326
304 305 305 304 305 305 307 309 308 308 309 308 309 309 312 313 317 317 316 316 320 318 318 320 326 328 326 323 322 323 324 325 326 327 328 328 329 329 329 329 328 328 328 329
304 304 304 304 306 309 310 309 309 310 313 312 314 315 314 316 315 317 317 318 322 319 319 323 322 326 325 323 322 324 325 326 327 327 328 328 328 329 329 329 329 328 327 328
305 305 306 304 306 308 309 313 311 312 312 315 317 319 318 317 318 320 318 322 322 321 322 324 327 324 325 326 326 326 326 327 327 327 326 326 326 325 326 326 324 324 325 325
310 309 310 311 314 309 308 311 314 312 314 316 316 318 319 317 319 321 321 321 323 324 326 327 324 322 325 327 327 329 327 326 326 325 325 324 323 322 321 320 321 322 323 323
312 312 313 314 313 311 313 313 314 314 313 314 316 317 318 319 320 320 323 325 326 324 326 323 320 319 321 325 326 327 326 325 325 324 323 322 320 320 318 318 319 320 321 321
314 312 312 312 312 313 315 314 314 313 311 313 316 320 322 323 322 322 323 324 319 319 319 318 317 318 319 321 325 325 325 324 322 320 319 319 319 319 318 317 318 318 319 318
310 312 308 309 309 312 313 313 313 311 315 320 320 321 322 321 319 320 319 317 318 316 317 317 318 319 318 319 324 324 324 323 321 319 317 316 316 318 319 320 318 318 318 317

GFSNW_925_thetae_162.txt.gz
Theta_e
302 302 303 302 302 301 305 306 308 306 308 313 312 313 313 310 312 314 315 316 318 323 324 324 326 328 326 327 328 329 327 325 326 325 325 325 327 329 332 334 337 333 335 335
302 303 302 303 302 302 304 307 307 305 307 309 312 314 314 313 313 313 314 316 317 320 322 323 324 325 323 324 328 330 329 326 327 326 327 327 326 326 328 330 332 335 335 334
303 302 302 303 302 302 304 307 306 308 311 310 311 312 313 313 314 314 314 315 316 318 318 321 323 322 320 322 327 330 331 328 330 329 328 327 327 326 326 328 331 330 333 335
303 303 302 302 302 302 304 306 307 307 308 311 310 311 311 313 314 315 317 316 315 317 319 320 321 321 320 320 322 326 330 332 332 331 329 327 327 327 328 329 329 330 330 331
302 302 302 302 302 303 305 306 306 307 307 306 307 308 312 313 314 315 316 318 317 318 318 319 320 320 321 323 322 326 326 331 332 332 330 330 329 328 328 328 328 329 330 332
303 303 303 302 303 303 305 305 305 307 306 306 306 306 308 311 310 313 315 315 315 319 319 319 320 321 322 323 325 324 326 328 332 331 330 329 331 331 330 330 329 329 330 331
303 303 303 302 302 302 306 305 305 307 307 306 306 305 306 307 307 310 311 312 314 317 313 316 319 320 320 321 323 324 326 329 331 331 330 332 330 329 329 329 329 330 331 331
303 302 303 303 301 302 304 305 304 305 307 305 305 305 305 306 306 307 308 309 311 313 314 320 323 323 321 320 321 321 323 326 326 330 332 332 330 331 330 330 331 330 331 332
303 303 303 303 302 302 303 305 305 304 306 305 305 305 306 307 308 308 308 310 310 311 314 320 323 323 323 324 322 322 323 324 326 328 330 332 330 331 332 331 334 332 332 332
303 303 303 303 303 302 303 304 304 304 306 304 306 306 306 306 306 308 308 310 311 313 316 321 323 323 322 324 325 325 325 326 324 325 327 329 329 331 332 336 333 333 334 335
302 302 302 302 303 303 302 303 304 304 304 304 304 305 306 306 306 307 308 308 312 314 317 323 322 322 322 324 325 327 328 328 327 325 327 329 333 338 336 335 336 343 342 340
302 301 301 301 302 301 302 303 303 304 305 304 303 304 304 304 305 306 306 308 309 311 319 322 324 327 325 324 326 325 330 326 326 326 327 332 329 340 337 344 345 345 345 342
300 301 301 300 301 302 302 303 302 303 304 304 304 304 303 303 303 304 306 306 307 308 310 313 317 326 326 328 326 327 327 328 329 327 327 329 334 339 343 343 345 345 343 344
300 301 300 300 301 301 301 302 303 303 303 305 304 303 304 304 304 304 304 305 306 310 307 309 313 321 326 327 329 333 327 330 331 332 330 333 338 341 343 345 345 343 343 343
301 299 301 300 300 301 302 302 302 302 303 305 305 303 304 304 304 305 305 306 307 307 308 309 313 318 323 325 327 330 331 333 336 332 333 340 336 342 345 345 343 342 342 341
302 300 299 300 301 300 302 304 303 302 302 304 306 305 306 306 307 309 306 307 307 307 309 309 311 310 319 323 330 329 334 334 336 341 340 340 344 343 343 343 341 340 339 336
304 302 302 300 301 302 303 305 304 303 303 302 306 309 308 310 310 311 308 306 307 307 309 311 312 318 321 322 326 329 334 331 334 337 338 341 343 345 342 340 338 332 331 332
305 304 303 302 302 301 302 302 301 302 302 303 307 309 310 309 311 310 308 308 310 311 311 313 320 321 320 324 324 325 329 332 334 338 336 339 339 339 338 334 331 332 332 330
306 305 304 304 303 304 304 302 303 303 304 307 307 311 314 311 313 315 313 311 312 312 313 317 320 323 323 322 325 329 331 333 334 335 334 334 333 332 331 331 330 330 330 330
305 304 305 307 305 303 302 304 305 304 303 301 305 307 311 309 314 314 314 315 317 319 319 319 321 323 321 321 324 325 327 330 331 333 335 332 331 330 330 329 328 328 327 326
304 306 307 306 305 305 307 308 309 308 309 305 306 305 308 312 316 316 315 314 317 321 320 321 323 326 324 324 323 327 329 330 329 330 329 329 329 330 330 330 329 330 330 331
305 305 305 305 307 309 310 310 308 309 311 308 311 313 309 315 315 315 314 315 313 320 317 319 319 320 319 324 325 327 330 331 331 331 331 331 331 331 331 331 332 332 331 331
305 306 306 306 307 309 310 314 310 310 310 310 315 317 317 317 315 317 316 313 316 317 319 317 316 320 325 326 328 328 327 328 329 329 329 329 329 328 328 329 328 328 328 329
313 314 317 316 314 308 308 310 311 313 312 315 316 317 318 318 316 317 316 317 320 317 319 317 321 322 325 326 328 328 328 326 326 326 327 326 326 326 325 326 326 326 327 326
315 314 319 315 315 315 316 318 316 316 315 315 316 319 319 321 322 321 322 321 318 315 319 322 321 322 325 324 325 326 328 327 326 325 324 323 323 323 323 324 324 325 325 325
314 314 314 314 316 317 316 317 317 317 314 315 317 323 323 323 321 320 319 319 318 318 320 321 322 323 323 327 327 327 325 325 323 323 322 323 323 324 323 323 323 323 323 325
314 315 313 316 314 316 316 316 318 317 319 322 321 321 323 319 320 318 318 321 319 318 320 321 323 323 323 326 327 327 325 322 320 320 321 322 323 324 324 326 324 323 323 323

GFSNW_925_thetae_165.txt.gz
Theta_e
303 302 302 302 302 301 305 307 311 310 309 313 314 314 314 314 316 317 317 319 321 325 328 329 328 329 328 329 329 330 331 328 328 327 327 327 328 330 332 337 341 337 337 337
302 303 303 302 302 302 304 310 310 308 307 309 310 313 313 315 316 316 316 317 319 321 325 329 328 328 329 328 329 329 332 330 329 328 328 327 327 328 330 333 335 338 339 338
303 302 302 302 302 302 303 309 310 310 311 311 311 314 316 317 316 316 317 317 318 319 322 325 328 327 328 325 327 339 333 331 330 329 330 328 327 327 328 330 334 333 334 336
303 303 302 302 302 302 304 309 310 309 311 312 313 312 313 314 315 316 316 318 317 318 321 323 324 326 326 324 328 327 331 333 330 328 328 329 328 328 327 328 329 332 332 333
303 303 303 302 302 302 304 309 308 308 310 309 309 310 310 312 312 314 318 319 320 319 320 322 323 324 326 325 325 326 329 334 332 331 329 329 330 329 329 328 328 329 330 331
303 303 303 302 302 302 305 307 307 308 308 308 309 309 309 309 314 314 315 317 320 320 320 321 321 322 324 326 328 327 329 331 334 335 331 331 331 332 330 329 329 329 330 331
303 303 303 303 302 302 304 305 307 309 309 308 308 309 308 308 310 311 312 314 316 318 317 318 320 321 323 324 326 328 330 334 332 335 334 336 333 332 331 331 331 331 331 331
303 303 303 303 302 302 303 305 306 307 307 307 307 307 307 308 308 308 308 310 312 313 315 320 322 322 323 323 324 327 328 331 333 334 334 333 332 331 331 332 333 332 332 332
303 303 303 303 303 302 302 304 306 307 307 306 306 307 307 307 309 309 310 309 311 314 316 319 322 323 323 324 324 324 325 329 332 333 334 338 332 331 331 331 333 331 331 332
303 304 303 303 303 303 302 303 305 306 307 306 306 307 307 308 308 309 309 311 311 313 316 318 319 320 322 324 325 326 325 327 329 331 333 332 332 331 332 336 335 333 333 333
302 303 302 302 302 302 303 303 304 305 306 306 305 306 306 306 307 308 309 311 310 312 316 317 318 320 322 324 326 329 327 328 328 329 331 333 329 330 333 337 335 335 335 337
302 302 303 302 301 302 302 304 303 305 306 305 304 304 304 305 306 306 309 309 311 313 319 323 324 323 323 325 326 326 332 329 330 328 330 330 330 332 337 337 346 344 347 346
302 302 303 301 301 301 302 304 304 304 307 306 306 306 304 304 304 305 308 308 308 309 312 314 317 325 327 333 327 327 327 328 332 331 332 329 329 330 331 338 346 345 345 345
301 300 301 300 300 302 302 304 304 305 304 306 305 304 305 305 305 305 305 307 307 309 311 313 314 319 324 328 328 332 329 331 330 331 330 330 328 328 330 332 341 345 345 345
304 302 299 301 300 301 302 304 304 304 305 305 306 304 304 305 306 306 306 306 307 308 312 312 314 315 317 320 322 329 329 332 332 332 331 332 333 331 330 335 342 345 344 345
304 304 303 300 300 300 303 304 304 303 303 306 307 306 307 308 308 307 307 308 308 309 309 311 311 312 316 320 322 324 325 327 332 336 337 340 342 339 332 337 344 345 345 346
304 305 305 303 300 302 304 307 306 305 304 305 307 309 310 310 309 309 309 307 307 307 310 310 311 313 319 322 323 322 323 326 326 329 334 339 342 342 343 343 344 341 343 340
305 306 305 304 302 302 303 303 303 303 304 304 307 309 312 311 313 313 311 309 310 310 309 309 311 313 317 322 320 320 322 323 327 332 334 336 338 342 344 343 342 340 338 338
306 306 305 305 304 305 306 304 303 302 304 308 308 310 314 308 312 312 310 309 312 312 312 313 315 317 321 320 321 323 324 326 329 331 335 337 339 343 343 340 337 338 337 336
306 305 306 308 307 304 304 303 305 305 304 302 306 307 311 311 313 314 316 314 315 316 315 314 317 320 318 318 319 320 322 326 326 330 337 340 340 344 343 337 336 335 335 334
306 307 308 306 305 305 307 308 307 305 306 304 305 306 309 309 311 316 315 311 315 320 321 321 323 321 319 319 321 322 324 324 326 329 329 337 337 337 336 335 333 333 332 332
308 306 305 305 307 308 308 308 307 308 312 310 311 310 306 309 313 316 313 316 315 320 319 322 323 322 323 324 324 325 324 327 329 330 332 334 333 334 333 333 334 334 332 332
306 308 310 310 309 310 309 312 309 307 305 308 311 314 314 314 316 314 316 315 318 314 319 320 321 320 318 323 324 326 327 329 330 332 332 333 333 333 333 334 332 332 332 332
315 317 324 318 318 314 311 313 315 312 309 309 312 313 316 317 314 310 311 311 314 316 320 318 316 320 325 326 327 328 329 327 328 329 330 331 331 331 329 329 328 328 329 328
317 317 320 319 318 317 317 318 319 318 318 319 318 318 316 316 314 315 317 318 319 315 316 321 323 321 323 324 325 325 326 325 325 325 326 326 327 328 328 327 327 327 328 328
316 317 316 316 317 318 318 320 321 321 321 321 320 324 322 320 318 318 318 318 318 322 323 324 323 319 320 322 322 322 322 324 324 325 325 325 326 327 327 325 326 327 328 329
319 321 319 317 317 318 320 320 321 321 322 321 321 323 322 320 318 317 319 323 321 321 324 325 325 324 322 321 322 322 322 323 323 324 326 326 326 325 326 328 326 326 327 327

GFSNW_925_thetae_168.txt.gz
Theta_e
302 303 303 302 302 302 305 306 309 312 312 313 313 313 313 314 315 317 319 320 322 324 325 328 330 329 328 329 329 329 330 330 332 329 328 327 327 329 332 339 344 340 343 340
302 303 302 302 302 302 304 308 309 309 310 312 311 311 313 314 315 316 317 319 319 321 323 326 329 331 330 329 329 330 331 332 334 330 329 328 327 327 331 333 336 343 340 340
301 301 302 302 302 302 304 307 311 312 311 310 310 310 312 313 315 315 317 318 318 319 320 322 325 329 330 329 329 337 333 330 335 333 330 329 329 327 328 330 336 336 337 339
302 302 302 302 302 302 304 307 311 310 312 313 313 315 312 315 318 317 317 318 318 319 320 321 323 326 329 329 328 328 329 336 335 331 330 329 328 328 327 330 332 332 334 337
303 303 303 302 302 302 304 306 309 310 312 310 311 312 313 313 314 315 317 318 318 320 320 321 323 326 328 330 329 328 329 336 334 333 331 330 329 329 328 328 328 330 331 333
303 304 304 303 303 302 304 306 307 310 309 309 309 310 311 311 311 312 315 317 319 322 322 320 320 320 322 324 328 331 330 333 339 337 332 331 330 330 330 330 330 329 331 334
303 304 304 303 303 303 303 304 306 309 309 309 310 311 311 311 311 313 313 313 316 318 318 316 319 321 322 323 326 328 335 340 336 335 337 337 332 331 330 331 331 333 333 334
304 304 304 304 303 303 303 303 306 308 308 307 307 308 309 310 310 310 310 310 311 312 313 316 322 322 324 325 325 328 329 332 332 338 337 335 333 333 332 334 335 334 333 336
304 304 304 304 303 303 303 302 305 306 308 307 307 308 308 309 309 310 311 312 311 310 312 317 323 325 324 326 325 326 328 337 337 335 336 338 337 334 331 331 338 338 335 338
303 303 303 304 302 302 304 304 304 306 307 306 306 307 307 308 310 310 311 312 313 311 312 316 318 321 323 326 327 327 328 334 334 335 337 334 333 333 333 338 336 333 333 337
303 303 303 304 304 302 303 304 304 305 305 305 306 306 307 306 308 309 309 311 312 314 312 313 314 316 319 322 327 329 330 331 330 334 336 337 332 332 336 347 346 338 338 337
303 303 303 303 301 302 302 303 304 305 306 306 304 305 305 306 306 307 308 310 311 313 318 320 320 319 318 325 324 327 331 330 331 332 331 338 332 336 337 338 338 345 353 346
303 303 303 303 301 302 303 303 305 305 307 306 306 307 305 305 304 305 307 308 309 310 311 315 316 322 327 331 328 331 329 331 333 332 333 333 334 333 334 334 337 343 344 345
303 304 304 301 302 300 301 304 304 306 306 307 306 304 306 306 306 305 305 306 307 309 310 312 314 315 319 324 320 323 327 330 335 336 336 332 335 332 333 334 334 334 341 343
304 303 305 304 300 300 301 304 305 305 306 306 306 305 305 305 306 306 306 306 307 308 308 311 312 313 315 316 317 320 325 330 336 335 337 340 341 337 333 334 333 334 339 345
305 304 304 305 303 300 303 306 305 304 305 306 308 306 307 308 307 306 308 308 308 308 308 309 310 312 312 314 319 320 321 323 324 330 328 331 335 339 340 342 342 334 340 345
304 305 306 306 305 302 303 307 305 305 304 306 308 307 310 308 308 310 309 308 308 309 309 309 309 310 313 315 318 316 317 318 321 324 326 332 335 337 339 343 345 339 343 349
305 306 306 306 305 303 303 303 303 304 305 305 308 308 310 312 314 314 311 311 309 310 310 310 311 312 312 313 314 315 316 318 319 322 326 330 332 336 339 339 343 345 346 345
306 306 306 306 304 306 306 304 304 303 304 307 308 311 314 311 314 314 313 312 314 311 311 311 310 310 311 312 313 315 318 320 322 323 325 328 331 336 342 340 343 344 344 342
305 305 306 308 307 306 305 304 304 304 304 303 306 307 310 311 313 315 315 311 311 312 311 311 313 313 312 312 312 316 320 322 321 323 325 327 330 335 337 337 343 343 341 340
308 308 308 306 305 305 306 307 305 304 305 304 305 306 307 307 312 314 313 315 315 317 317 315 316 315 315 315 316 318 319 320 320 323 324 325 328 334 337 337 340 340 340 339
309 308 306 306 308 308 308 308 306 305 309 309 307 307 306 308 311 312 312 316 315 318 318 319 321 320 320 320 319 319 320 320 321 324 325 329 332 333 335 339 340 336 337 336
307 309 311 311 310 312 309 313 309 307 303 304 308 312 309 307 312 312 313 314 316 312 318 319 321 322 322 323 323 325 325 325 326 327 329 332 336 335 336 337 334 334 334 334
314 316 323 319 319 318 314 314 318 318 310 308 310 309 312 315 313 311 311 312 309 316 318 315 315 318 320 323 327 327 326 326 328 331 334 333 334 333 331 333 333 333 335 334
318 318 318 319 319 319 319 322 322 322 320 313 311 313 311 311 309 309 311 314 317 314 315 312 319 319 319 321 325 326 326 326 326 328 328 330 330 330 331 330 329 330 331 331
317 318 318 321 321 322 322 323 324 324 321 323 322 321 319 319 317 317 316 317 316 315 320 318 318 316 317 319 321 323 324 325 325 327 326 327 328 327 327 329 330 330 330 331
322 322 318 324 324 323 324 322 324 322 322 323 322 323 323 320 321 319 322 325 323 323 323 319 320 319 318 317 317 319 320 321 322 324 324 325 326 326 326 327 328 328 328 330

GFSNW_925_thetae_171.txt.gz
Theta_e
302 302 300 301 302 302 303 305 307 307 306 309 312 312 313 312 312 312 313 314 315 317 321 323 324 325 323 323 325 325 326 324 327 328 324 324 322 322 322 326 333 333 331 333
302 302 302 302 301 302 303 305 306 306 308 310 311 311 311 311 311 312 312 314 316 317 319 322 325 326 327 326 326 325 326 327 327 328 327 323 323 323 322 322 327 332 334 334
303 303 303 303 302 302 303 305 307 310 311 311 312 313 312 310 311 311 313 313 315 318 319 319 322 321 322 324 326 338 331 326 327 328 329 327 323 324 323 321 324 328 334 332
303 302 303 303 303 302 303 304 306 309 312 310 311 311 312 314 314 315 316 314 316 318 319 320 320 323 324 325 330 327 328 326 327 327 328 328 327 325 324 323 323 327 330 332
302 302 302 303 303 303 303 306 308 307 308 311 309 310 311 312 312 313 315 315 317 319 321 321 320 318 321 325 322 326 328 332 330 330 328 328 328 328 325 324 324 325 327 327
302 303 304 304 304 303 303 303 304 307 308 308 309 311 311 311 311 311 312 314 315 319 314 314 314 315 315 317 320 323 329 336 333 331 331 331 331 329 329 326 325 324 324 326
304 305 306 303 304 303 303 303 304 307 306 306 307 308 309 309 310 310 310 311 313 313 311 311 313 315 317 320 320 320 325 331 338 331 336 337 332 330 330 328 330 326 326 328
304 305 304 303 304 303 304 303 304 306 306 305 306 307 307 308 309 310 309 311 311 311 310 312 319 321 322 322 322 322 322 331 334 333 334 334 332 333 331 330 330 331 332 331
304 304 304 303 303 302 303 304 304 305 306 304 305 306 307 308 309 310 311 310 310 312 309 312 320 323 325 325 325 322 322 328 335 334 333 335 335 335 332 332 333 336 334 335
303 303 304 304 304 304 302 304 304 304 306 304 304 306 306 306 307 308 309 309 311 312 312 311 315 318 319 324 327 328 327 330 331 334 334 334 334 333 333 337 340 348 338 336
303 302 303 304 304 302 303 304 304 305 306 305 304 304 306 306 307 307 307 308 312 314 316 315 312 314 316 318 319 325 331 330 331 334 336 336 336 336 342 335 339 348 349 346
304 303 304 304 303 302 302 303 303 305 305 305 305 305 305 305 306 306 306 307 310 311 316 316 316 320 321 325 321 321 324 327 330 332 335 334 332 334 333 332 336 338 345 345
304 304 303 305 304 302 302 303 304 305 307 306 305 306 305 305 305 305 305 306 307 310 310 311 314 317 318 327 329 323 322 321 330 333 331 333 328 330 329 329 332 331 334 341
304 305 305 303 305 302 301 303 304 304 306 307 305 304 305 305 306 306 305 305 305 307 308 310 312 313 314 321 316 317 318 319 330 336 332 333 334 331 334 338 331 330 330 336
304 305 305 304 304 305 301 302 303 304 306 306 306 305 305 305 305 307 306 306 305 306 307 309 310 310 311 312 312 314 316 324 326 328 323 326 326 325 332 339 340 340 338 333
304 305 305 305 305 305 302 305 305 305 305 306 308 306 305 306 307 307 307 307 306 307 307 307 307 307 309 312 313 314 314 317 315 317 319 321 322 322 334 335 337 338 338 337
305 305 305 306 306 306 303 307 305 304 305 305 307 307 309 309 308 308 308 307 308 308 308 308 308 309 309 310 312 311 312 312 314 315 316 318 320 323 330 331 336 338 338 347
305 305 306 306 306 306 304 304 303 303 304 305 307 307 307 312 312 312 310 309 308 308 308 309 309 309 309 311 311 311 312 312 312 314 315 317 321 325 329 330 336 337 343 344
305 306 306 306 305 304 305 305 305 304 303 307 307 309 314 312 314 314 313 313 313 311 310 309 310 310 311 310 309 310 312 313 312 314 317 319 320 325 328 329 334 337 338 340
306 306 306 308 306 305 305 304 303 304 304 303 304 306 309 308 314 315 314 313 312 312 311 310 311 311 309 309 309 309 311 310 311 313 319 322 324 326 326 328 334 337 337 339
307 309 309 306 306 305 305 306 304 302 303 301 303 304 305 305 309 314 314 315 315 316 315 312 313 312 310 309 309 309 310 309 311 313 318 320 323 325 327 333 335 336 340 338
309 308 307 306 307 308 308 306 304 303 307 303 305 306 307 309 311 314 313 314 314 318 316 317 319 315 316 317 316 311 310 312 313 314 317 322 326 327 329 333 336 337 340 337
308 309 310 311 311 311 309 312 308 306 302 301 304 309 308 306 307 312 312 312 315 310 316 318 318 315 313 312 316 321 314 312 314 315 324 327 328 329 334 336 335 335 334 334
314 317 317 317 319 318 316 316 320 317 307 304 308 310 311 310 311 311 309 310 306 313 316 315 313 311 313 313 318 320 323 325 324 326 327 328 332 335 335 334 335 336 336 336
318 317 318 319 319 321 322 322 323 320 308 309 310 311 311 311 308 305 307 311 316 313 313 307 310 313 318 325 325 324 325 327 329 330 330 330 331 330 331 331 332 332 333 335
319 318 322 323 324 323 322 322 322 319 310 311 316 315 317 316 313 314 313 314 316 314 315 316 316 317 318 321 322 323 323 324 326 326 328 328 328 328 329 329 330 330 330 331
322 323 321 325 323 324 323 321 321 320 320 321 321 323 322 321 321 323 323 326 321 321 319 318 317 318 317 318 319 318 318 319 320 322 324 325 326 327 326 326 327 328 329 329